{"data":{"norad_id":53632,"epoch":"2026-05-24T23:39:50.305824Z","epoch_age_seconds":70077,"freshness":"FRESH","line1":"1 53632U 22104AW  26144.98599891 -.00000115  00000+0  10857-4 0  9995","line2":"2 53632  53.2156 241.5922 0001366  81.0979 279.0167 15.08832396207745","mean_motion":15.08832396,"eccentricity":0.0001366,"inclination_deg":53.2156,"raan_deg":241.5922,"arg_perigee_deg":81.0979,"mean_anomaly_deg":279.0167,"bstar":1.0857e-5,"rev_number":20774,"period_min":95.438035650449,"perigee_km":538.82164581163,"apogee_km":540.71161708375,"semimajor_km":6917.9036314477,"source":"CELESTRAK","updated_at":"2026-05-25T13:38:17.481820Z"}}